Weather History for Kansas City International, MO

Change the Weather History Date:

Monday, March 18, 2013

  Actual Average Record
Temperature  
Mean Temperature 41 °F 45 °F  
Max Temperature 52 °F 56 °F 85 °F (1921)
Min Temperature 29 °F 34 °F 0 °F (1923)
Degree Days  
Heating Degree Days 24 20  
Month to date heating degree days 482 417  
Since 1 July heating degree days 4214 4462  
Cooling Degree Days 0 0  
Month to date cooling degree days 0 0  
Year to date cooling degree days 0 0  
Moisture  
Dew Point 28 °F    
Average Humidity 63    
Maximum Humidity 96    
Minimum Humidity 30    
Precipitation  
Precipitation 0.01 in 0.08 in 1.98 in (1992)
Month to date precipitation 1.40 1.24  
Year to date precipitation 4.29 3.77  
Snow  
Snow T in 0.10 in 6.00 in (1906)
Month to date snowfall T 1.4  
Since 1 July snowfall 25.2 17.6  
Snow Depth 0.00 in    
Sea Level Pressure  
Sea Level Pressure 29.86 in    
Wind  
Wind Speed 11 mph (NW)    
Max Wind Speed 24 mph    
Max Gust Speed 31 mph    
Visibility 7 miles    
Events Rain , Snow    
T = Trace of Precipitation, MM = Missing Value Source: NWS Daily Summary

Daily Weather History Graph

Daily Weather History Graph

Search for Another Location

Airport:

Trip Planner

Search our weather history database for the weather conditions in past years. The results will help you decide how hot, cold, wet, or windy it might be!

Date:

Astronomy

Mar. 18, 2013 Rise Set
Actual Time 7:25 AM CDT 7:29 PM CDT
Civil Twilight 6:58 AM CDT 7:55 PM CDT
Nautical Twilight 6:27 AM CDT 8:27 PM CDT
Astronomical Twilight 5:55 AM CDT 8:58 PM CDT
Moon 11:27 AM CDT (3/18) 1:27 AM CDT (3/18)
Length of Visible Light 12h 57m
Length of Day
12h 04m
Waxing Crescent, 41% of the Moon is Illuminated
Mar 18
Waxing Crescent
Mar 19
First Quarter
Mar 27
Full
Apr 2
Last Quarter
Apr 10
New

Hourly Weather History & Observations

Time (CDT) Temp. Windchill Dew Point Humidity Pressure Visibility Wind Dir Wind Speed Gust Speed Precip Events Conditions
12:53 AM 34.0 °F 28.8 °F 32.0 °F 92% 29.79 in 5.0 mi ENE 5.8 mph - 0.00 in   Light Drizzle
1:00 AM 33.8 °F 28.6 °F 32.0 °F 93% 29.77 in 4.0 mi East 5.8 mph - 0.00 in   Light Drizzle
1:15 AM 33.8 °F 26.4 °F 32.0 °F 93% 29.76 in 2.0 mi ENE 9.2 mph - 0.00 in   Light Drizzle
1:53 AM 34.0 °F 29.8 °F 32.0 °F 92% 29.78 in 2.0 mi East 4.6 mph - 0.00 in   Light Drizzle
2:01 AM 33.8 °F 28.6 °F 32.0 °F 93% 29.75 in 1.0 mi East 5.8 mph - 0.00 in   Light Drizzle
2:53 AM 34.0 °F - 32.0 °F 92% 29.80 in 1.0 mi Calm Calm - 0.00 in   Overcast
3:03 AM 33.8 °F 30.8 °F 30.2 °F 87% 29.78 in 1.0 mi WSW 3.5 mph - 0.00 in Rain Light Rain
3:53 AM 34.0 °F 29.8 °F 32.0 °F 92% 29.79 in 1.0 mi West 4.6 mph - 0.01 in   Light Drizzle
4:23 AM 33.8 °F 30.8 °F 32.0 °F 93% 29.75 in 0.2 mi WNW 3.5 mph - 0.00 in   Light Drizzle
4:53 AM 34.0 °F 29.8 °F 32.0 °F 92% 29.77 in 0.2 mi WNW 4.6 mph - 0.00 in   Light Drizzle
5:53 AM 34.0 °F 27.2 °F 32.0 °F 92% 29.80 in 0.2 mi WNW 8.1 mph - 0.00 in   Light Drizzle
6:23 AM 33.8 °F 27.7 °F 32.0 °F 93% 29.78 in 3.0 mi WNW 6.9 mph - 0.00 in Snow Light Snow
6:53 AM 34.0 °F 28.8 °F 32.0 °F 92% 29.80 in 7.0 mi WNW 5.8 mph - 0.00 in   Overcast
7:01 AM 33.8 °F 27.7 °F 32.0 °F 93% 29.79 in 8.0 mi West 6.9 mph - N/A   Overcast
7:50 AM 33.8 °F 27.0 °F 32.0 °F 93% 29.81 in 8.0 mi West 8.1 mph - N/A   Overcast
7:53 AM 34.0 °F 27.2 °F 32.0 °F 92% 29.83 in 7.0 mi West 8.1 mph - N/A   Overcast
8:12 AM 35.6 °F 29.2 °F 32.0 °F 87% 29.81 in 8.0 mi West 8.1 mph - N/A   Overcast
8:53 AM 35.1 °F 27.9 °F 32.0 °F 89% 29.84 in 7.0 mi WNW 9.2 mph - N/A   Overcast
9:53 AM 39.9 °F 31.1 °F 33.1 °F 77% 29.86 in 10.0 mi NW 17.3 mph 26.5 mph N/A   Mostly Cloudy
10:17 AM 42.8 °F 35.4 °F 32.0 °F 66% 29.84 in 10.0 mi NW 15.0 mph - N/A   Partly Cloudy
10:53 AM 44.1 °F 37.1 °F 30.0 °F 58% 29.87 in 10.0 mi NW 15.0 mph 23.0 mph N/A   Partly Cloudy
11:53 AM 46.0 °F 39.6 °F 28.9 °F 51% 29.89 in 10.0 mi NW 15.0 mph 23.0 mph N/A   Partly Cloudy
12:53 PM 46.8 °F - 25.9 °F 44% 29.91 in 10.0 mi WNW 20.7 mph - N/A   Partly Cloudy
1:53 PM 48.0 °F - 26.1 °F 42% 29.91 in 10.0 mi WNW 17.3 mph 25.3 mph N/A   Partly Cloudy
2:53 PM 50.0 °F - 25.0 °F 38% 29.89 in 10.0 mi West 17.3 mph 27.6 mph N/A   Scattered Clouds
3:53 PM 51.1 °F - 23.0 °F 33% 29.89 in 10.0 mi NW 17.3 mph 25.3 mph N/A   Scattered Clouds
4:53 PM 51.1 °F - 21.9 °F 32% 29.90 in 10.0 mi NW 18.4 mph 25.3 mph N/A   Scattered Clouds
5:53 PM 50.0 °F - 21.9 °F 33% 29.93 in 10.0 mi NW 17.3 mph 28.8 mph N/A   Partly Cloudy
6:53 PM 46.9 °F - 19.0 °F 33% 29.95 in 10.0 mi WNW 15.0 mph 26.5 mph N/A   Clear
7:53 PM 43.0 °F 37.7 °F 18.0 °F 37% 29.99 in 10.0 mi NW 9.2 mph - N/A   Clear
8:53 PM 37.9 °F 31.5 °F 18.0 °F 45% 30.03 in 10.0 mi NNW 9.2 mph - N/A   Clear
9:53 PM 33.1 °F 26.9 °F 17.1 °F 52% 30.05 in 10.0 mi North 6.9 mph - N/A   Clear
10:53 PM 33.1 °F 27.7 °F 16.0 °F 50% 30.07 in 10.0 mi North 5.8 mph - N/A   Clear
11:53 PM 30.9 °F 25.2 °F 15.1 °F 52% 30.07 in 10.0 mi North 5.8 mph - N/A   Partly Cloudy